EW4925 Weather Reports


time (UTC)temp
C
wind
direction
speed
KPH
gust
KPH
rain 1hr
cm
rain 24hr
cm
rain mn
cm
humidity
%
barometer
mb
20260505035621 7 272 0.0 0.0 0.23 0.28 0.30 89
20260505034120 7 272 0.0 0.0 0.10 0.15 0.15 88
20260505032617 8 292 1.6 11.3 0.03 0.08 0.08 85
20260505031117 8 282 0.0 11.3 0.00 0.05 0.05 82
20260505025615 8 324 0.0 1.6 0.00 0.05 0.05 79
20260505024114 8 54 0.0 4.8 0.00 0.05 0.05 76
20260505023344 9 220 0.0 8.0 0.00 0.05 0.05 73
20260505021115 10 248 1.6 14.5 0.00 0.05 0.05 72
20260505015608 10 82 0.0 0.0 0.00 0.05 0.05 70
20260505014110 10 78 16.1 24.1 0.03 0.05 0.05 68
20260505012610 10 71 12.9 27.4 0.03 0.05 0.05 67
20260505011109 10 42 11.3 20.9 0.03 0.05 0.05 66
20260505005609 11 341 0.0 22.5 0.03 0.05 0.05 65
20260505004107 12 342 1.6 24.1 0.00 0.03 0.03 57
20260505002607 12 100 17.7 27.4 0.00 0.03 0.03 50
20260505001108 13 91 19.3 32.2 0.00 0.03 0.03 47
20260504235607 14 87 22.5 30.6 0.00 0.03 0.03 45
20260504234838 15 104 14.5 27.4 0.00 0.03 0.03 42
20260504232607 16 113 22.5 37.0 0.00 0.03 0.03 40
20260504231112 15 120 3.2 17.7 0.03 0.03 0.03 39
20260504231108 16 335 3.2 22.5 0.03 0.03 0.03 39
20260504224107 13 162 8.0 22.5 0.03 0.03 0.03 44
20260504222608 14 34 20.9 40.2 0.03 0.03 0.03 52
20260504221106 16 290 9.7 27.4 0.00 0.00 0.00 37
20260504215608 16 304 16.1 27.4 0.00 0.00 0.00 35
20260504214101 17 322 6.4 27.4 0.00 0.00 0.00 31
20260504212601 18 313 1.6 19.3 0.00 0.00 0.00 33
20260504211102 16 40 11.3 27.4 0.00 0.00 0.00 38
20260504210332 15 96 25.7 35.4 0.00 0.00 0.00 47
20260504204102 13 80 25.7 40.2 0.00 0.00 0.00 58
20260504202555 12 93 27.4 40.2 0.00 0.00 0.00 56
20260504201100 15 69 17.7 37.0 0.00 0.00 0.00 37
20260504201055 13 93 27.4 41.8 0.00 0.00 0.00 47
20260504194054 17 325 9.7 22.5 0.00 0.00 0.00 34
20260504192555 17 330 6.4 33.8 0.00 0.00 0.00 33
20260504191055 18 315 20.9 37.0 0.00 0.00 0.00 32
20260504185556 16 299 19.3 37.0 0.00 0.00 0.00 35
20260504184825 17 269 20.9 37.0 0.00 0.00 0.00 33
20260504184208 17 286 12.9 25.7 0.00 0.00 0.00 32
20260504182709 17 277 8.0 17.7 0.00 0.00 0.00 31
20260504175555 18 316 4.8 22.5 0.00 0.00 0.00 31
20260504174055 17 280 14.5 27.4 0.00 0.00 0.00 35
20260504172554 16 243 12.9 45.1 0.00 0.00 0.00 37
20260504171054 15 287 12.9 27.4 0.00 0.00 0.00 37
20260504151100 11 244 0.0 11.3 0.00 0.00 0.00 52
20260504151055 12 209 0.0 1.6 0.00 0.00 0.00 53
20260504141054 10 138 0.0 1.6 0.00 0.00 0.00 55
20260504110310 8 148 17.7 25.7 0.00 0.00 0.00 63
20260504081029 10 209 16.1 38.6 0.00 0.00 0.00 51
20260504045524 13 137 0.0 16.1 0.00 0.00 0.00 28
20260504044023 13 123 14.5 17.7 0.00 0.00 0.00 28
20260504042523 13 132 14.5 17.7 0.00 0.00 0.00 29
20260504041021 12 116 1.6 12.9 0.00 0.00 0.00 29